Theta_e
332 331 330 329 330 331 335 331 330 330 328 328 329 328 327 327 328 328 327 336 339 341 341 342 343 343 343 346 349 350 350 347 348 346 345 344 344 342 342 343 342 340 338
331 330 330 329 328 329 330 330 330 329 326 327 327 327 327 325 328 328 328 329 338 340 342 342 344 342 342 342 348 349 349 347 347 346 344 344 343 342 343 342 340 339 338
331 330 329 327 329 327 327 328 330 328 328 327 328 328 328 328 325 325 327 328 330 340 343 345 344 342 342 341 344 348 347 347 346 345 344 343 341 342 342 341 340 339 339
333 330 329 328 328 326 327 327 326 327 324 326 324 322 323 325 327 329 329 327 328 331 337 344 342 341 341 342 344 346 346 347 346 344 343 343 343 343 342 341 339 339 340
334 331 329 328 327 326 325 325 325 324 321 322 322 322 322 322 323 327 326 326 325 331 331 337 340 341 343 343 344 344 346 346 344 344 344 343 342 341 341 340 340 339 339
334 331 330 328 326 325 324 323 322 323 322 321 323 323 323 323 321 322 324 325 325 328 331 328 329 333 341 344 344 345 345 347 345 345 344 342 342 341 340 339 339 340 334
332 329 328 327 326 325 325 324 322 323 322 323 321 320 321 321 320 321 322 323 324 326 327 328 328 330 335 344 343 344 345 347 347 345 342 341 342 341 339 339 339 333 330
334 332 327 326 325 324 323 324 324 321 321 323 318 316 311 315 319 320 320 321 322 325 325 326 328 329 331 333 337 344 345 346 346 344 342 340 340 340 339 338 333 330 332
333 329 328 326 325 326 324 323 323 321 316 320 317 314 309 306 308 314 318 319 320 320 323 326 328 329 329 331 338 342 344 344 345 344 342 340 340 340 339 338 331 330 331
329 329 328 326 325 324 323 321 322 318 316 313 317 318 313 311 307 307 314 316 319 319 320 322 325 327 328 329 337 340 340 341 343 343 343 340 339 339 339 334 334 332 328
328 330 328 326 324 322 322 321 319 318 317 315 314 314 313 313 312 308 307 313 316 317 318 320 321 323 327 329 331 336 338 336 336 339 340 340 340 339 335 332 331 327 330
324 327 327 324 323 322 321 320 320 319 317 316 316 315 313 312 311 310 307 308 310 314 323 325 327 325 328 330 335 337 333 332 330 333 335 336 337 334 331 330 329 330 331
321 323 324 323 321 322 321 320 319 319 318 317 317 316 316 314 315 312 310 308 308 318 321 324 328 328 330 330 334 336 334 329 326 327 329 331 332 332 331 330 330 330 329
321 322 323 322 322 323 323 321 320 319 318 318 318 318 317 317 317 318 314 311 308 312 316 321 328 328 330 331 334 334 331 326 325 324 325 326 327 327 328 328 328 329 330
322 322 322 322 322 322 322 320 319 319 320 319 320 319 318 318 319 320 316 315 312 308 311 321 323 327 328 328 332 333 328 326 325 322 321 321 322 323 324 325 325 326 327
323 322 321 322 321 322 322 320 319 320 320 320 321 320 318 319 322 321 319 316 314 314 314 321 323 325 325 326 328 327 327 324 322 320 320 319 319 319 320 322 322 323 325
322 322 323 322 322 322 321 320 319 321 320 319 319 320 319 319 322 320 319 317 315 318 318 320 323 323 320 318 320 323 324 322 320 320 319 318 317 318 319 319 319 321 322
322 323 323 323 323 323 322 320 321 321 320 320 320 319 321 322 320 320 318 315 316 317 320 317 320 319 317 318 317 318 321 322 320 319 317 317 316 316 315 315 314 314 314
322 323 324 323 323 323 322 322 323 322 322 323 322 321 321 320 319 319 316 317 318 319 320 319 317 319 318 318 316 317 315 315 318 319 316 316 315 314 313 312 311 310 308
322 322 322 324 324 324 324 324 323 321 323 323 324 323 323 322 321 320 319 320 320 319 319 319 317 316 317 318 317 315 315 315 316 317 315 314 313 313 312 311 311 310 307
324 325 326 325 322 323 323 323 321 321 322 323 324 325 324 323 320 321 322 322 320 318 319 317 316 316 316 315 314 316 313 313 312 313 311 310 309 309 309 311 312 311 306
324 323 323 320 318 318 305 311 318 321 320 322 321 322 322 319 315 313 315 316 319 318 318 317 316 315 315 316 316 314 313 312 307 313 308 304 306 303 303 303 306 305 303
319 318 317 317 315 314 301 303 309 321 320 322 320 323 323 320 318 319 311 312 312 311 315 319 317 316 315 316 316 315 314 313 312 310 308 302 301 298 298 301 302 301 301
318 315 315 314 313 312 301 303 307 320 319 320 322 322 320 320 318 318 320 319 320 320 319 321 319 319 319 319 319 317 313 311 311 309 308 302 297 295 295 295 300 299 298
316 314 314 313 313 312 301 302 315 323 323 323 323 322 321 319 303 305 319 316 315 314 307 306 306 304 303 304 312 315 312 310 307 307 307 300 297 294 294 293 294 299 297
321 318 315 312 309 313 300 303 316 322 320 319 320 318 308 313 301 305 319 317 314 314 314 313 312 308 311 309 308 316 314 310 307 305 308 300 297 295 295 294 292 294 293
Wind_Speed
7 6 5 4 5 4 5 4 4 4 5 5 4 5 5 6 6 3 3 13 14 15 15 16 13 11 11 11 12 16 18 18 19 18 17 16 15 15 15 15 15 14 11
6 6 6 6 4 4 4 5 6 6 5 4 5 5 6 5 5 5 4 5 15 13 14 16 15 12 10 11 13 15 18 19 19 18 18 16 16 15 16 15 15 15 14
7 8 6 4 6 4 5 4 4 4 3 4 6 4 3 5 5 5 5 4 5 9 11 16 18 14 12 12 14 17 19 19 19 19 18 17 15 15 15 16 16 14 8
10 6 5 5 4 4 5 4 4 4 4 4 3 4 4 4 5 4 4 4 4 3 4 11 12 12 14 14 15 16 17 18 19 19 19 18 16 15 14 16 16 15 14
9 7 5 5 5 4 4 4 3 3 3 4 4 4 4 4 4 2 4 5 6 4 3 6 11 11 12 15 16 17 17 18 19 19 20 18 17 16 14 13 11 15 19
9 7 5 5 5 4 4 3 4 4 3 4 4 4 4 4 3 3 4 3 5 4 4 5 3 5 12 13 13 15 18 19 20 21 21 19 17 15 12 11 14 21 21
8 7 5 5 5 6 7 7 3 4 4 2 2 0 2 4 4 4 3 3 4 5 4 4 4 4 5 12 11 13 18 20 24 22 17 19 17 15 17 17 20 22 20
9 8 6 5 6 4 4 4 4 2 3 5 2 2 1 2 2 4 4 4 6 3 4 5 5 5 5 4 6 11 16 21 22 20 19 14 17 19 21 20 24 21 20
6 6 6 5 5 4 4 4 4 5 3 2 1 4 2 4 1 1 4 4 4 3 4 4 5 5 5 5 7 10 14 15 20 21 19 16 18 20 21 24 25 20 21
6 5 5 5 5 3 4 4 4 3 3 3 1 2 1 3 2 2 2 0 2 3 3 3 4 5 5 4 8 10 11 13 16 19 21 21 19 20 24 24 22 21 19
6 6 6 4 4 4 4 5 4 5 3 3 3 2 1 1 2 2 1 1 1 1 1 1 2 3 4 4 4 6 11 12 13 20 22 22 21 23 27 26 24 21 19
3 4 5 5 4 4 4 4 4 5 4 3 3 3 4 4 3 2 1 1 1 2 3 1 2 3 3 4 7 9 11 13 14 18 19 21 25 27 27 23 22 20 19
2 3 5 5 3 4 4 4 4 5 5 4 5 4 3 3 3 3 3 1 2 1 1 2 2 1 2 3 6 10 14 15 15 16 16 22 24 25 25 23 22 19 17
3 4 4 4 4 4 4 4 3 3 4 4 5 5 4 4 4 3 4 5 3 1 1 2 2 2 2 2 5 11 9 16 16 16 18 18 25 22 21 21 17 14 15
3 5 5 4 4 4 4 4 3 4 4 4 5 5 4 4 4 4 4 3 6 3 2 2 0 3 3 3 6 8 11 21 21 20 23 22 23 19 14 13 11 11 13
4 5 4 4 4 3 4 4 3 3 5 4 4 5 4 3 4 3 3 3 2 4 4 1 3 2 6 6 10 9 13 23 26 26 26 25 23 21 17 9 7 9 11
6 5 5 4 3 4 3 3 3 4 4 4 3 5 4 2 3 3 3 3 3 5 8 3 3 5 7 10 9 9 13 13 16 25 27 23 20 17 10 10 9 10 10
4 5 4 3 3 4 3 4 4 4 5 5 5 4 3 2 3 3 4 4 5 4 10 10 3 3 7 10 10 10 8 11 16 23 21 19 15 14 9 9 11 10 10
5 4 4 4 4 3 3 3 5 5 4 4 4 3 3 4 3 3 4 6 6 5 7 8 6 4 5 8 11 10 10 12 12 20 16 12 10 10 10 11 11 10 10
6 5 5 4 3 3 3 3 4 3 3 3 4 4 4 4 4 6 5 9 9 9 9 8 8 7 6 7 9 11 9 9 10 7 11 10 11 12 11 11 11 11 10
4 5 5 5 4 4 2 3 4 4 4 4 4 5 5 5 6 7 7 9 11 8 9 9 7 7 8 9 10 6 9 9 6 5 7 4 6 5 4 7 8 10 9
5 7 6 6 6 2 4 3 5 5 4 4 4 5 4 4 5 8 9 10 12 14 11 9 7 9 9 8 9 10 11 9 5 3 4 5 3 3 3 3 5 8 10
6 7 6 6 5 2 5 3 6 4 4 4 4 4 3 2 5 5 8 11 11 9 9 12 13 11 12 13 12 11 9 6 5 3 7 3 2 3 3 4 7 8 9
5 5 5 5 5 1 3 7 8 5 5 4 4 4 5 4 4 6 8 9 10 9 9 8 11 13 12 12 11 11 9 8 9 4 3 3 0 2 2 2 4 6 7
4 4 4 5 4 2 4 8 7 4 4 5 4 5 5 6 7 10 11 12 11 9 12 15 14 15 15 14 13 11 8 10 5 2 1 4 2 2 1 2 2 5 6
4 4 4 4 3 2 3 6 6 3 4 4 5 5 9 7 8 11 11 13 13 11 14 14 12 13 13 12 11 6 9 10 6 2 4 4 3 4 1 1 3 3 3
Wind_Direction
186 178 197 202 212 200 197 196 192 198 215 228 226 215 237 236 241 226 235 252 248 241 240 244 227 236 233 214 198 191 184 179 171 166 170 171 171 173 175 172 165 157 164
175 189 211 217 209 202 194 186 198 203 213 207 238 212 233 247 238 230 222 245 255 248 235 230 226 227 240 216 205 194 186 178 174 167 170 172 172 180 181 176 175 169 182
181 184 202 214 213 196 188 194 193 178 216 224 232 214 220 259 252 237 225 232 257 254 239 225 212 218 227 223 211 200 191 175 177 168 174 174 178 183 180 181 179 177 172
179 175 185 213 225 185 185 181 182 190 205 200 229 237 238 256 268 239 216 210 240 253 228 190 193 212 224 219 214 205 197 186 175 175 176 179 180 179 183 185 185 187 166
175 187 172 192 185 177 175 176 185 158 182 223 231 241 238 237 239 224 225 227 238 235 214 212 197 206 213 215 212 208 199 191 181 178 175 176 181 184 190 198 188 158 146
166 164 172 182 183 155 184 180 186 199 195 214 220 218 224 239 230 216 228 233 238 236 225 221 205 211 211 213 214 218 198 197 185 183 181 173 178 182 189 165 148 140 124
156 158 176 182 164 184 194 191 171 199 222 208 187 63 270 240 241 231 215 230 252 235 219 221 206 201 206 207 210 218 205 204 198 182 182 174 164 163 154 145 141 129 137
164 178 177 182 181 192 190 197 207 223 228 182 157 94 280 313 255 214 203 213 227 231 224 217 201 205 191 186 197 210 217 213 204 186 197 179 159 158 154 149 132 135 135
171 165 179 181 202 198 206 207 199 193 178 203 198 139 126 230 338 319 210 202 212 213 230 223 204 196 189 182 192 203 212 220 195 181 172 168 163 156 157 146 139 140 137
170 163 172 186 221 198 200 189 180 168 142 163 188 195 103 136 152 334 2 173 168 198 216 234 216 203 187 181 191 194 199 214 207 173 166 161 165 154 144 138 137 132 135
150 165 181 193 197 191 202 177 163 177 174 148 161 141 136 75 94 131 283 306 10 77 82 260 277 250 196 186 181 191 193 197 191 165 163 165 161 158 139 144 133 139 135
144 176 169 176 190 183 185 191 193 185 181 172 175 173 160 164 179 154 199 259 148 24 54 93 192 220 197 188 194 178 177 174 172 155 156 153 140 138 138 136 141 141 143
173 191 170 173 175 186 193 183 182 192 185 189 191 201 192 185 154 151 146 147 122 97 92 26 36 141 155 187 204 168 159 157 154 137 144 143 142 138 142 143 141 141 145
172 160 166 163 181 187 190 189 186 189 185 199 207 206 199 202 182 170 178 144 83 70 90 117 27 132 105 157 188 172 145 137 131 129 133 135 137 132 131 127 136 148 145
160 156 146 155 182 179 178 173 186 191 186 193 215 214 204 212 197 194 189 160 143 148 117 50 83 89 71 24 106 119 135 139 132 125 120 119 114 113 118 124 147 140 131
134 137 141 168 173 179 180 174 184 203 193 205 207 201 201 203 184 168 181 164 140 132 124 80 48 76 75 61 83 101 129 119 121 122 115 110 111 108 113 130 135 142 136
143 147 171 172 178 158 172 183 209 179 164 157 155 172 199 204 183 173 120 113 103 105 120 82 63 86 65 80 80 96 115 123 116 115 113 118 121 126 137 127 133 134 130
150 166 168 150 213 187 170 200 191 171 164 169 171 153 98 134 182 155 123 123 118 113 130 120 100 78 87 90 92 92 105 119 115 112 116 123 120 124 138 145 127 117 120
153 155 146 167 187 167 189 183 185 179 184 193 189 185 149 130 117 114 111 116 114 101 115 116 115 93 93 106 97 91 99 106 108 111 122 123 129 135 134 117 117 121 113
160 164 169 173 169 158 163 154 134 156 180 181 177 151 122 115 120 122 121 124 121 116 118 113 115 114 111 109 111 117 114 114 127 108 86 93 95 90 103 111 117 121 128
177 156 130 124 130 129 127 139 123 125 114 93 93 109 117 120 119 134 144 137 133 125 129 128 127 131 132 134 131 114 111 110 75 94 89 73 85 74 64 84 117 129 127
118 112 115 123 113 89 8 92 146 135 129 103 101 99 118 120 105 133 138 138 148 142 146 138 136 141 137 125 126 129 124 129 104 41 103 64 48 75 61 55 96 111 109
110 107 115 117 114 101 3 105 138 119 124 126 124 126 113 102 130 129 127 122 114 98 129 151 142 146 134 139 134 134 131 124 110 119 100 88 34 67 23 61 102 128 147
116 121 130 128 126 103 6 122 118 112 112 117 121 116 112 108 114 125 131 130 134 130 128 133 133 135 134 136 130 127 115 96 90 78 86 113 70 82 53 51 151 166 165
116 131 127 144 141 112 40 132 119 118 101 100 95 102 105 100 116 120 116 112 107 94 80 90 102 106 111 112 120 122 119 124 115 142 74 114 147 100 158 227 219 197 190
129 121 128 136 111 124 27 146 116 116 103 87 77 79 105 113 105 103 114 118 115 122 115 110 106 97 106 107 105 118 146 147 134 115 202 103 141 145 229 221 197 180 189